Lid_Strength_Index
8 12 14 13 13 13 15 15 16 13 10 11 11 13 12 10 9 9 8 7 7 6 5 5 4 5 2 2 2 1 1 1 1 2 2 2 3 2 2 2 2 2 2 2
11 14 11 10 11 13 13 16 16 13 10 11 12 15 14 11 11 11 9 7 7 6 6 6 7 7 3 2 2 2 1 1 1 1 1 1 1 1 1 2 2 1 1 1
13 12 10 11 13 14 13 14 15 15 11 10 12 14 13 12 9 10 8 6 7 6 7 8 9 9 7 7 6 2 1 1 1 1 1 1 1 1 1 2 2 1 1 1
12 10 11 12 13 12 15 11 12 12 15 19 11 20 14 13 11 9 8 7 7 8 8 9 10 10 9 9 8 6 5 5 2 1 1 2 2 3 2 2 1 1 1 1
12 12 12 13 13 11 13 10 12 12 14 16 15 17 15 11 12 11 9 8 9 10 10 11 11 12 11 10 9 8 6 7 7 7 1 2 2 2 1 2 2 1 1 0
11 8 10 11 10 10 9 11 12 12 14 19 15 16 17 14 12 11 9 10 11 11 11 12 12 12 12 11 10 9 9 9 10 9 8 1 2 2 2 2 2 1 1 1
14 12 9 9 12 10 11 14 19 20 20 21 15 16 15 13 12 10 11 11 11 11 12 13 13 13 12 12 12 10 10 10 10 10 10 8 2 2 2 2 2 2 2 2
18 18 12 10 11 13 14 14 18 25 23 20 15 19 16 13 12 11 12 12 12 12 13 14 13 13 13 13 12 12 11 11 11 11 11 12 10 7 8 6 5 6 7 7
18 17 10 10 9 10 14 16 12 17 16 19 17 15 13 13 14 13 14 14 15 14 14 14 14 14 14 14 13 12 12 12 12 11 12 13 12 12 11 10 10 9 9 8
13 17 12 12 10 11 12 11 17 16 22 23 19 18 18 15 15 15 15 15 14 14 14 14 14 14 13 13 13 12 12 13 12 12 12 13 13 13 13 12 12 12 11 10
11 14 14 12 13 14 14 15 14 15 16 21 21 20 15 14 14 15 15 15 14 15 15 15 15 14 13 13 13 13 13 13 13 13 13 13 13 13 13 13 13 13 13 12
12 13 16 15 11 10 12 15 14 18 19 19 19 20 15 15 13 14 14 14 14 14 14 14 14 13 14 14 14 14 14 14 13 13 13 13 13 14 14 14 14 14 14 13
12 16 18 17 15 13 15 15 14 14 15 19 23 20 14 16 15 14 14 14 14 14 14 14 14 14 15 14 15 15 14 14 14 14 14 14 14 14 15 15 14 14 14 14
10 14 17 20 17 16 17 15 15 16 19 19 19 19 17 17 17 16 16 15 15 14 14 14 14 15 15 15 15 15 15 14 14 14 15 15 16 15 15 15 15 15 15 15
12 16 16 16 15 15 16 17 15 17 17 19 18 19 17 17 17 16 15 15 15 15 15 15 16 16 16 16 16 15 15 15 15 15 16 16 16 16 16 16 16 16 16 16
14 15 17 19 17 16 17 17 16 16 17 16 17 18 15 15 15 16 15 16 16 16 16 16 16 16 16 16 16 16 16 16 16 17 17 17 16 16 17 17 17 16 17 17
17 18 19 20 19 19 19 17 17 15 15 17 18 16 14 16 15 16 15 15 15 15 16 16 16 16 16 17 16 17 17 16 17 17 17 17 17 17 18 18 18 18 18 17
20 22 23 23 21 23 15 15 16 16 16 15 15 15 15 16 15 15 15 15 16 15 15 16 16 17 17 17 17 17 17 17 17 17 17 17 17 18 18 18 18 18 18 18
16 21 23 22 30 20 16 17 18 18 17 16 15 15 15 14 14 16 15 15 16 16 16 16 17 17 17 17 17 17 18 18 18 18 18 18 17 18 18 18 18 18 18 18
16 19 20 29 28 26 18 17 16 16 18 16 14 14 14 14 16 16 15 15 16 16 16 16 16 16 16 17 16 17 17 18 18 18 18 18 18 18 18 18 18 18 18 18
26 28 29 31 30 24 18 17 16 21 18 15 14 14 14 15 16 15 15 15 15 15 16 16 16 17 17 17 16 17 17 18 17 17 17 18 18 18 18 18 18 18 18 18
24 28 30 33 28 25 18 16 18 16 15 15 14 15 14 15 15 15 15 15 15 16 16 15 16 16 16 16 16 17 17 17 18 18 18 19 19 17 17 18 19 19 19 19
22 21 24 22 21 18 16 16 15 14 14 14 14 14 14 15 18 18 18 18 18 19 17 18 18 18 19 18 17 18 18 19 19 19 21 21 20 18 18 19 19 20 20 20
20 20 21 20 19 19 16 15 14 14 14 14 14 14 15 16 18 18 18 18 19 21 21 23 21 20 20 21 19 20 20 21 21 21 21 21 20 20 20 18 18 19 20 21
20 20 22 21 19 20 19 18 17 16 17 16 18 18 17 16 16 17 17 18 20 21 22 23 22 21 21 23 22 24 22 21 20 21 21 21 21 21 20 20 20 19 19 18
19 18 19 19 16 17 17 20 20 19 18 20 18 17 19 18 16 18 18 20 21 20 21 21 21 22 21 22 21 21 22 21 21 21 21 21 21 21 20 20 20 15 13 12